CW7701 Weather Reports


time (UTC)temp
C
wind
direction
speed
KPH
gust
KPH
rain 1hr
cm
rain 24hr
cm
rain mn
cm
humidity
%
barometer
mb
20260905113044 26 215 0.0 4.8 0.00 0.00 0.00 86 1009.7
20260905111542 26 215 1.6 4.8 0.00 0.00 0.00 86 1009.7
20260905110040 26 214 0.0 6.4 0.00 0.00 0.00 85 1009.7
20260905104545 27 214 0.0 3.2 0.00 0.00 0.00 84 1009.5
20260905103039 27 214 0.0 4.8 0.00 0.00 0.00 84 1009.5
20260905101539 27 214 1.6 6.4 0.00 0.00 0.00 85 1009.8
20260905100035 26 214 1.6 3.2 0.00 0.00 0.00 84 1009.8
20260905094540 27 214 0.0 4.8 0.00 0.00 0.00 84 1009.9
20260905093036 27 214 1.6 4.8 0.00 0.00 0.00 83 1009.6
20260905091529 27 214 1.6 4.8 0.00 0.00 0.00 82 1009.7
20260905090027 27 214 0.0 3.2 0.00 0.00 0.00 81 1009.8
20260905084530 27 214 1.6 3.2 0.00 0.00 0.00 81 1010.2
20260905083021 27 214 1.6 4.8 0.00 0.00 0.00 82 1010.4
20260905081518 27 214 1.6 4.8 0.00 0.00 0.00 81 1010.7
20260905080032 27 214 1.6 6.4 0.00 0.00 0.00 81 1010.9
20260905074512 27 208 1.6 4.8 0.00 0.00 0.00 81 1011.0
20260905073026 28 208 0.0 3.2 0.00 0.00 0.00 80 1010.6
20260905071507 28 208 0.0 3.2 0.00 0.00 0.00 79 1010.5
20260905070005 28 207 1.6 4.8 0.00 0.00 0.00 79 1010.4
20260905064509 28 207 1.6 3.2 0.00 0.00 0.00 79 1010.4
20260905063005 28 207 1.6 4.8 0.00 0.00 0.00 79 1010.5
20260905061504 28 207 0.0 4.8 0.00 0.00 0.00 79 1010.6
20260905060003 28 207 1.6 6.4 0.00 0.00 0.00 78 1010.7
20260905054503 29 207 0.0 4.8 0.00 0.00 0.00 77 1010.6
20260905053002 29 206 0.0 3.2 0.00 0.00 0.00 74 1010.7
20260905051601 29 205 3.2 6.4 0.00 0.00 0.00 75 1010.7
20260905050100 29 205 0.0 4.8 0.00 0.00 0.00 75 1010.9
20260905044600 29 205 4.8 8.0 0.00 0.00 0.00 74 1010.9
20260905043121 30 206 4.8 8.0 0.00 0.00 0.00 74 1010.8
20260905041558 30 212 3.2 8.0 0.00 0.00 0.00 75 1010.9
20260905040118 30 212 3.2 9.7 0.00 0.00 0.00 75 1011.1
20260905034600 30 209 1.6 9.7 0.00 0.00 0.00 76 1011.1
20260905033100 30 209 3.2 6.4 0.00 0.00 0.00 75 1011.0
20260905031556 30 209 3.2 16.1 0.00 0.00 0.00 76 1010.8
20260905030056 30 190 4.8 11.3 0.00 0.00 0.00 76 1010.7
20260905024555 30 198 3.2 8.0 0.00 0.00 0.00 76 1010.6
20260905023102 30 198 6.4 11.3 0.00 0.00 0.00 75 1010.5
20260905021554 30 183 6.4 11.3 0.00 0.00 0.00 75 1010.4
20260905020053 30 186 8.0 12.9 0.00 0.00 0.00 74 1010.0
20260905014553 30 171 8.0 14.5 0.00 0.00 0.00 73 1009.8
20260905013059 31 180 8.0 16.1 0.00 0.00 0.00 72 1009.8
20260905011551 31 184 6.4 14.5 0.00 0.00 0.00 72 1009.7
20260905010053 31 212 6.4 16.1 0.00 0.00 0.00 72 1009.5
20260905004552 31 176 8.0 16.1 0.00 0.00 0.00 71 1009.4
20260905003051 32 187 6.4 14.5 0.00 0.00 0.00 69 1009.3
20260905001550 32 180 9.7 17.7 0.00 0.00 0.00 67 1009.1
20260905000049 33 167 9.7 19.3 0.00 0.00 0.00 63 1009.1
20260904234552 33 181 9.7 17.7 0.00 0.00 0.00 62 1009.0
20260904233048 33 172 9.7 24.1 0.00 0.00 0.00 64 1008.9
20260904231547 34 142 11.3 24.1 0.00 0.00 0.00 63 1009.0
20260904230045 35 155 9.7 19.3 0.00 0.00 0.00 61 1009.1
20260904224545 35 171 9.7 24.1 0.00 0.00 0.00 60 1009.1
20260904223041 35 148 9.7 17.7 0.00 0.00 0.00 60 1009.3
20260904221541 35 146 4.8 16.1 0.00 0.00 0.00 59 1009.2
20260904220100 35 157 8.0 17.7 0.00 0.00 0.00 60 1009.3
20260904214540 35 138 4.8 19.3 0.00 0.00 0.00 61 1009.4
20260904213036 35 139 9.7 17.7 0.00 0.00 0.00 61 1009.7
20260904211537 35 142 8.0 19.3 0.00 0.00 0.00 60 1009.8
20260904210041 35 153 4.8 17.7 0.00 0.00 0.00 61 1009.9
20260904204528 35 107 6.4 17.7 0.00 0.00 0.00 62 1009.8
20260904203041 35 161 11.3 19.3 0.00 0.00 0.00 61 1010.1
20260904201523 35 140 8.0 16.1 0.00 0.00 0.00 61 1010.3
20260904200023 35 156 9.7 17.7 0.00 0.00 0.00 60 1010.5
20260904194523 35 141 3.2 17.7 0.00 0.03 0.00 62 1010.6
20260904193018 35 156 9.7 17.7 0.00 0.03 0.00 62 1010.8
20260904191515 35 156 8.0 14.5 0.00 0.03 0.00 61 1010.8
20260904190012 35 166 8.0 14.5 0.00 0.03 0.00 58 1011.0
20260904184509 35 138 4.8 14.5 0.00 0.13 0.00 60 1011.0
20260904183007 35 147 4.8 14.5 0.00 0.13 0.00 60 1011.1
20260904181503 35 149 3.2 14.5 0.00 0.13 0.00 60 1011.3
20260904180120 35 147 4.8 11.3 0.00 0.13 0.00 63 1011.4
20260904174607 34 171 4.8 12.9 0.00 0.13 0.00 64 1011.6
20260904173051 33 348 1.6 6.4 0.00 0.13 0.00 63 1011.6
20260904171553 34 347 0.0 4.8 0.00 0.13 0.00 62 1011.4
20260904170049 33 347 0.0 6.4 0.00 0.13 0.00 64 1011.5
20260904164540 33 347 3.2 8.0 0.00 0.13 0.00 65 1011.4
20260904163035 32 334 1.6 6.4 0.00 0.13 0.00 68 1011.3
20260904161533 32 334 1.6 6.4 0.00 0.13 0.00 67 1011.2
20260904160028 32 334 1.6 6.4 0.00 0.13 0.00 68 1011.2
20260904154528 31 334 1.6 8.0 0.00 0.13 0.00 70 1011.1
20260904153020 30 331 1.6 4.8 0.00 0.13 0.00 72 1011.1
20260904151518 29 331 3.2 8.0 0.00 0.13 0.00 75 1011.1
20260904150019 28 329 1.6 8.0 0.00 0.13 0.00 80 1011.1
20260904144507 27 329 1.6 6.4 0.00 0.13 0.00 82 1011.1
20260904143009 26 329 1.6 6.4 0.00 0.13 0.00 85 1011.2
20260904141505 26 329 1.6 8.0 0.00 0.13 0.00 87 1011.2
20260904140004 25 327 1.6 8.0 0.00 0.13 0.00 88 1011.1
20260904134503 25 327 1.6 6.4 0.00 0.46 0.00 88 1010.9
20260904133006 25 327 0.0 4.8 0.00 0.46 0.00 88 1010.8
20260904131600 25 327 1.6 4.8 0.00 0.46 0.00 88 1010.7
20260904130059 25 318 0.0 6.4 0.00 0.46 0.00 88 1010.6
20260904124608 25 208 3.2 6.4 0.00 0.48 0.00 88 1010.5
20260904123057 25 208 0.0 6.4 0.00 0.48 0.00 88 1010.4
20260904121555 25 208 1.6 6.4 0.00 0.48 0.00 88 1010.3
20260904120059 25 207 1.6 8.0 0.00 0.48 0.00 88 1010.1
20260904114550 25 200 3.2 6.4 0.00 0.99 0.00 88 1010.1